Flag for U.S.A. Weather past 2 weeks in Hopkinsville, Kentucky, U.S.A.

Now
74 °F

Clear.


Feels Like: 73 °F
Forecast: 58 / 80 °F
Wind: 3 mph from Southwest

Location: Fort Campbell U. S. Army Airfield

Current Time: Sep 20, 2014 at 9:53:45 PM

Latest Report: Sep 20, 2014 at 8:58 PM


Visibility: 10 mi

Pressure: 29.99 "Hg

Humidity: 86%

Dew point: 69 °F

Location of HopkinsvilleLocation

Historic Weather in Hopkinsville — Graph

°F

Hopkinsville temperature yesterday

Maximum temperature yesterday: 82 °F (at 4:58 PM)
Minimum temperature yesterday: 54 °F (at 5:58 AM)
Average temperature yesterday: 69 °F

Past Weeks' High & Low Weather Summary

 TemperatureHumidityPressure
High86 °F (Sep 9, 2:58 PM)100% (Sep 6, 1:58 AM)30.31 "Hg (Sep 6, 1:58 AM)
Low48 °F (Sep 17, 6:58 AM)42% (Sep 9, 1:58 PM)29.82 "Hg (Sep 10, 6:58 PM)
Average68 °F84%30.07 "Hg
* Reported Sep 5 7:58 PM — Sep 20 7:58 PM, Hopkinsville, Weather by CustomWeather, © 2014

Note: Actual official high and low records may vary slightly from our data, if they occured in-between our weather recording intervals... More about our weather records

Advertising

Hopkinsville weather history for previous 24 hours

 ConditionsComfort  
Time TempWeatherWind HumidityBarometerVisibility
7:58 PM
Sep 20
76 °FClear.3 mph80%29.98 "Hg10 mi
6:58 PM79 °FSunny.5 mph69%29.96 "Hg10 mi
5:58 PM82 °FSunny.9 mph61%29.97 "Hg10 mi
4:58 PM83 °FPassing clouds.9 mph56%29.97 "Hg10 mi
3:58 PM85 °FPassing clouds.9 mph53%30.00 "Hg10 mi
2:58 PM85 °FSunny.7 mph55%30.01 "Hg10 mi
1:58 PM85 °FPassing clouds.12 mph55%30.03 "Hg10 mi
12:58 PM85 °FSunny.9 mph58%30.05 "Hg10 mi
7:58 AM70 °FSunny.1 mph98%30.10 "Hg10 mi
6:58 AM65 °FClear.2 mph100%30.08 "Hg8 mi
5:58 AM68 °FClear.5 mph100%30.07 "Hg10 mi
4:58 AM68 °FPassing clouds.7 mph100%30.05 "Hg10 mi
3:58 AM64 °FClear.5 mph100%30.03 "Hg10 mi
2:58 AM64 °FPassing clouds.3 mph100%30.03 "Hg10 mi
1:58 AM62 °FClear.2 mph100%30.04 "Hg10 mi
12:58 AM64 °FClear.No wind100%30.04 "Hg10 mi
11:58 PM
Sep 19
65 °FClear.No wind98%30.04 "Hg10 mi
10:58 PM68 °FClear.No wind92%30.04 "Hg10 mi
9:58 PM69 °FClear.3 mph83%30.04 "Hg10 mi
Weather by CustomWeather, © 2014

See weather overviewHow to use our weather pages